ORBCOMM FM118 [+] (41183 NORAD) Tracking and Keplerian Element Data

This shows tracking and keplerian element data for the satellite.

Feedback or suggestion? Click here.




ElementValue
Catalog41183
NameORBCOMM FM118 [+]
Epoch Orbit22725
Epoch Day92.08197573
Epoch Year2020
RAAN239.5728
Inclination47.0035
Eccentricity0.0001016
Argument of Perigee155.4682
Mean Anonmoly204.625
Mean Motion14.54793331
Decay Rate-6.5E-07
L11 41183U 15081E 20092.08197573 -.00000065 00000-0 23335-4 0 9997
L22 41183 47.0035 239.5728 0001016 155.4682 204.6250 14.54793331227250

Live tracking and technical data element details for ORBCOMM FM118 [+] (NORAD 41183). ORBCOMM FM118 [+] can be tracked NOW for your location showing map with azimuth and elevation plus other details from your city location.

Track the satellite on the map from your city or location and see movement details for azimuth, elevation, latitude, longitude, range, height, and movement on the map or in text.







IsCatalogInMostPopularTable: catalog: 41183, numindb: 353
Update: records affected: 1



GetName: 41183 ORBCOMM FM118 [+]

Hit Count: updated at: Fri, 03 Apr 2020 07:08:53 GMT